Theta_e
307 308 308 307 307 308 308 307 306 306 306 307 307 307 307 307 307 307 307 308 308 308 308 308 308 308 308 308 309 310 311 312 313 314 316 317 315 316 317 316 315 313 314 313 313 314 314 314 314 313 316 319 317 318 317 319 327 334 333 325 322 327 327 326 328 324 319 320 322 319 316 315 317 319 316 314 315 320 319 315 316 314 313 314 313 312 312 315
308 308 308 307 306 307 308 308 308 308 307 307 307 307 307 307 307 307 307 307 308 308 308 308 308 308 308 309 311 312 313 314 314 314 317 318 317 316 316 316 314 313 313 313 313 314 315 316 313 315 320 319 317 318 320 318 323 337 333 319 326 336 330 327 329 324 319 318 319 319 317 315 315 316 314 314 318 320 318 316 314 314 315 314 312 312 313 316
308 308 308 308 307 307 307 308 309 308 308 308 308 308 308 307 308 307 307 307 308 308 308 307 308 309 310 312 313 314 314 314 314 314 316 318 317 316 315 315 314 313 313 314 314 313 315 316 313 317 322 318 318 320 324 320 319 332 328 321 336 338 327 326 325 322 319 317 317 319 317 316 316 315 314 314 318 319 317 317 315 315 316 316 315 311 312 317
309 308 308 308 307 307 308 308 309 309 309 309 309 309 308 308 308 309 308 308 308 308 309 310 311 311 313 314 315 316 314 314 316 315 316 316 315 315 314 314 313 313 313 313 314 314 314 314 312 318 321 319 320 320 323 324 318 320 322 327 336 327 321 325 324 323 321 316 315 316 316 316 315 314 315 315 317 318 317 316 316 316 315 315 315 309 310 316
309 309 308 308 308 308 309 309 310 309 309 310 310 310 309 308 309 310 310 310 310 311 311 312 313 314 315 315 316 316 315 317 317 314 314 315 314 314 314 314 313 313 313 314 315 314 314 312 313 319 321 318 319 318 321 324 319 319 322 329 332 322 319 322 325 323 318 315 315 316 316 315 315 315 316 316 316 316 316 316 315 314 313 312 312 309 309 314
309 309 309 309 308 309 309 309 309 309 310 310 310 310 310 309 310 311 312 312 312 313 313 313 314 315 315 315 317 316 314 316 315 313 314 313 314 314 314 314 314 313 313 315 315 313 314 314 314 319 320 317 317 317 317 318 317 321 324 325 327 321 318 321 322 320 316 314 315 316 314 313 314 315 316 316 315 316 316 316 313 311 309 308 308 307 308 312
310 309 310 309 309 309 309 309 309 310 310 310 310 310 311 311 312 313 313 314 314 314 313 313 313 313 314 314 318 319 318 317 316 317 316 314 315 315 314 314 313 313 313 314 314 315 316 315 316 318 319 317 315 317 316 315 315 319 323 323 322 319 319 323 321 320 318 314 315 314 311 312 314 315 315 315 314 315 313 312 309 306 304 305 306 306 307 308
311 311 310 310 310 309 309 310 310 310 311 311 312 312 312 312 312 313 313 313 313 313 313 312 312 311 312 314 318 324 323 321 318 319 319 318 317 315 314 314 313 313 312 313 314 315 315 315 316 315 317 316 314 316 314 313 316 320 323 322 319 317 320 322 319 319 318 315 313 311 312 314 313 313 313 314 314 313 312 311 308 306 305 306 307 306 306 306
313 313 312 311 311 310 310 310 310 311 312 313 313 313 313 313 313 313 313 314 314 313 313 312 312 310 311 313 318 324 324 320 319 320 320 319 318 315 314 314 313 313 312 314 314 313 313 316 317 314 316 316 314 315 314 314 318 320 321 319 316 316 317 317 317 317 315 314 313 311 314 314 311 312 314 317 316 312 313 312 310 311 310 307 307 306 305 305
314 314 313 312 311 311 311 310 311 313 314 314 314 314 315 314 315 315 316 316 316 315 314 313 313 311 311 313 318 322 320 320 321 321 320 318 317 315 314 314 313 313 313 314 314 312 313 315 314 313 316 317 313 313 313 314 315 316 317 316 315 315 314 315 317 315 312 313 313 313 315 314 312 311 316 320 315 311 314 311 307 311 310 306 306 305 303 303
315 314 314 313 312 312 311 311 312 314 315 315 316 316 317 317 317 318 319 318 316 315 314 313 312 311 312 315 320 320 318 320 321 320 320 317 315 315 314 314 314 313 314 314 313 313 313 314 311 311 315 315 313 313 314 314 313 313 314 314 316 315 314 315 316 314 312 313 314 314 315 315 311 312 319 318 312 311 312 308 304 307 308 306 305 303 303 302
316 315 315 313 312 312 311 312 313 315 316 316 317 318 318 319 319 319 319 317 316 314 313 313 311 311 312 314 318 318 316 319 320 319 318 315 314 314 314 315 315 313 314 313 314 315 314 314 312 314 316 314 315 314 314 313 312 313 313 314 317 318 316 315 314 313 312 313 315 314 316 318 315 317 321 313 310 312 310 306 305 307 307 306 304 303 302 301
317 316 315 314 312 311 311 313 314 316 317 317 318 319 319 319 319 319 318 315 315 313 313 311 310 312 312 314 315 313 315 317 318 318 316 315 314 315 315 316 316 315 314 314 314 314 314 314 314 315 315 316 318 314 313 315 312 314 313 312 315 318 320 317 312 312 312 313 316 313 316 326 325 323 319 310 309 313 312 310 307 308 307 305 304 303 302 300
317 317 316 314 311 311 312 314 315 316 317 318 319 319 319 319 319 318 315 314 314 313 312 310 310 312 312 314 314 312 314 315 317 318 316 316 316 316 316 315 315 315 315 315 314 313 314 314 312 314 313 315 316 311 315 321 318 315 311 316 318 316 324 323 312 314 314 313 313 312 317 325 324 323 315 307 310 313 314 313 308 307 306 304 304 302 301 300
317 317 316 313 311 311 313 314 315 316 318 319 320 320 319 319 319 316 314 313 312 312 311 309 311 312 312 315 313 312 314 315 317 318 317 318 316 316 316 315 314 314 314 314 314 313 313 313 314 316 314 312 315 317 321 324 326 322 313 322 327 317 323 325 314 315 316 312 311 311 319 320 318 322 314 306 310 312 313 313 307 307 305 303 303 301 301 300
317 317 315 313 311 312 314 314 315 317 319 320 320 319 319 320 318 315 313 312 310 311 311 312 313 312 314 316 313 313 314 315 317 317 317 317 316 316 315 315 314 313 314 313 313 313 312 315 313 314 315 312 319 328 327 323 327 327 317 322 331 320 319 321 315 316 315 313 312 311 317 318 317 321 315 309 310 311 316 314 306 305 304 302 301 300 300 299
318 317 314 312 311 313 314 314 317 319 320 321 320 319 319 320 318 314 313 313 313 314 313 314 314 313 314 314 313 314 314 314 315 316 317 316 316 315 313 313 312 311 313 311 313 313 311 314 312 313 316 315 318 324 324 321 323 328 320 317 324 320 316 318 318 317 313 313 314 312 314 315 316 318 313 309 307 311 317 312 305 304 303 302 301 300 300 299
319 317 315 312 312 313 314 316 319 320 321 321 320 320 320 319 317 314 314 314 315 315 314 313 312 316 318 314 314 315 313 313 315 316 316 316 315 314 312 312 309 309 312 312 312 312 312 316 317 318 317 314 315 317 319 322 324 329 324 319 322 320 316 317 318 317 315 315 315 315 316 315 317 316 311 308 307 312 313 306 304 303 302 301 300 300 299 299
319 318 315 313 313 314 315 318 320 321 321 320 320 320 319 316 315 314 313 314 316 318 319 316 315 320 320 316 314 314 313 314 315 315 314 315 314 312 312 310 311 313 313 314 312 313 316 318 318 319 316 314 315 315 317 320 322 325 323 322 323 321 319 317 316 316 314 313 316 316 316 318 318 316 312 308 307 309 307 304 304 303 301 301 300 300 299 298
319 318 315 314 315 315 317 320 320 320 320 320 320 319 321 321 320 320 317 316 319 320 321 319 317 319 318 315 315 313 314 313 313 314 313 314 313 312 312 310 314 315 315 321 318 312 315 318 318 318 318 317 315 313 314 315 316 317 318 319 319 318 318 316 315 316 313 313 319 317 316 319 318 317 311 306 308 307 305 304 303 302 301 301 300 300 299 298
319 318 315 314 316 316 319 320 319 321 321 320 319 319 323 326 325 324 323 323 319 315 319 319 314 316 315 313 314 313 314 314 312 312 312 313 312 313 314 312 316 317 317 323 318 311 313 317 319 318 316 315 313 312 311 312 312 313 315 316 317 317 315 314 313 315 313 314 320 317 316 318 317 316 309 305 309 308 304 304 303 302 301 300 300 299 298 298
318 316 314 315 317 318 320 320 320 321 320 320 320 318 318 319 318 317 320 326 323 315 316 317 313 315 314 312 314 313 315 318 316 314 311 311 312 314 316 315 318 320 317 317 316 314 315 316 317 315 313 312 312 312 311 312 313 313 315 315 317 318 317 319 316 314 313 314 322 320 316 317 315 311 307 304 305 304 302 303 302 301 300 299 299 298 297 297
316 315 314 315 317 319 319 320 320 321 320 319 319 317 315 315 315 314 316 325 327 319 318 320 318 319 318 315 314 313 316 319 319 317 312 311 313 314 315 315 317 319 317 315 317 318 319 319 316 312 312 313 313 314 313 314 314 316 317 316 319 318 318 323 321 318 315 313 318 319 314 316 314 309 306 303 303 302 301 301 301 300 299 298 298 297 296 296
315 314 314 315 318 319 319 319 321 320 320 319 319 318 317 317 315 314 317 322 324 321 320 318 318 321 322 317 314 315 317 318 320 318 312 312 315 313 315 316 316 318 316 315 317 318 320 320 317 314 314 314 314 315 315 315 317 321 320 317 319 318 317 322 321 319 318 315 316 314 317 323 317 313 311 305 303 303 301 301 300 299 299 298 297 296 296 295
314 315 315 316 318 320 319 320 321 320 320 319 319 318 318 318 314 313 319 324 325 324 318 314 316 320 318 313 313 316 317 318 319 315 310 311 314 314 314 314 315 318 316 314 314 316 317 316 316 318 317 315 315 316 318 319 319 324 324 319 317 318 319 320 319 318 321 324 317 312 323 333 323 316 312 306 306 304 302 302 301 299 298 297 296 296 295 295
314 315 315 316 318 320 320 321 321 320 321 319 319 319 317 317 314 313 322 328 328 327 322 317 318 318 314 312 313 315 320 320 313 310 310 310 312 314 315 314 315 318 317 315 315 316 317 314 315 320 321 318 317 318 320 319 320 323 323 320 317 316 317 319 318 318 323 326 316 309 318 330 327 322 314 307 307 305 303 302 301 299 298 296 296 295 295 294
315 315 315 316 318 320 321 322 322 319 321 321 319 318 316 317 314 313 322 331 330 327 322 318 316 315 313 310 310 318 326 320 310 309 310 310 310 311 316 317 314 315 315 316 319 320 318 316 315 317 321 321 319 320 320 318 323 326 322 320 321 318 319 321 318 319 322 320 319 318 315 318 323 322 313 308 309 306 303 303 301 299 298 296 296 295 295 294
315 315 317 317 318 320 321 322 321 319 321 322 319 317 317 316 314 316 326 335 331 323 319 316 312 311 310 307 310 317 318 314 315 312 307 308 310 310 315 319 318 317 314 317 325 323 315 315 318 318 318 320 320 321 321 318 322 325 319 318 322 321 322 323 319 320 318 313 322 327 317 315 323 321 310 307 311 309 305 304 301 299 298 297 296 295 295 294
316 316 318 319 318 319 320 322 321 320 321 320 318 318 317 314 315 320 329 333 328 319 315 313 310 309 310 309 311 313 310 310 315 313 307 308 310 310 314 317 319 318 311 315 324 321 313 312 317 319 319 320 321 319 318 319 318 318 315 317 320 320 322 323 322 322 318 315 322 325 317 318 325 325 313 308 313 313 308 304 301 300 298 297 296 295 295 294
316 316 318 318 318 318 319 320 321 322 321 319 318 317 315 316 318 326 332 331 326 319 313 311 311 310 312 312 312 311 310 311 312 311 310 311 310 310 310 311 316 318 316 317 320 318 315 311 312 317 317 319 320 315 312 315 314 312 316 321 324 323 322 323 323 320 318 322 325 322 318 317 323 328 320 312 312 311 307 304 301 299 297 297 296 295 295 294
317 317 318 319 318 318 319 320 321 322 320 319 318 315 316 320 324 331 333 326 323 321 313 312 312 310 313 316 316 312 310 312 311 312 313 312 312 313 311 310 314 321 322 320 320 318 317 313 314 317 315 315 319 315 312 314 314 315 321 324 324 325 323 323 324 321 321 328 326 318 315 314 321 326 319 312 307 305 306 305 301 299 298 297 296 295 294 293
318 318 319 320 319 318 320 321 321 322 321 319 319 318 321 325 327 332 329 322 325 323 317 317 313 310 313 316 316 312 312 313 311 313 316 314 315 314 315 317 318 321 323 320 322 322 320 318 316 315 313 315 322 321 315 315 317 319 322 323 324 324 324 326 326 322 324 325 318 315 314 314 321 320 313 309 305 301 303 303 299 298 297 297 296 295 294 293
319 319 319 320 320 320 320 321 321 322 321 319 320 322 324 327 330 330 326 325 328 320 317 320 316 314 315 315 316 313 313 314 311 313 315 314 315 314 315 319 317 319 322 318 319 320 322 323 316 312 313 316 320 320 318 319 318 317 319 323 325 323 325 331 328 320 322 320 313 313 316 318 323 318 307 304 301 298 299 300 298 297 296 296 296 295 294 293
320 320 319 320 320 321 321 321 321 322 321 319 321 323 324 328 330 327 325 327 327 319 317 319 315 315 315 316 319 316 313 315 311 312 314 312 314 317 316 315 313 318 322 318 318 320 324 327 321 316 316 316 315 316 323 324 317 314 317 319 322 326 329 330 328 324 324 322 315 312 317 325 328 314 301 299 298 296 297 298 297 297 296 296 296 295 294 293
321 320 320 320 320 320 321 321 321 322 320 319 321 325 326 328 327 326 326 326 325 321 319 319 316 315 316 318 321 318 315 317 314 313 315 315 317 321 321 318 315 318 322 321 320 319 320 326 326 317 312 313 314 315 320 322 316 313 315 316 318 324 324 321 321 321 320 321 319 316 320 324 317 306 299 299 298 296 297 297 296 297 296 296 296 295 295 294
320 319 319 319 319 320 320 321 321 321 320 320 323 325 325 327 327 326 326 324 324 321 318 321 320 317 318 320 320 318 317 319 317 314 315 317 318 319 323 324 318 315 319 322 323 321 319 324 323 314 311 313 313 315 316 319 319 314 313 318 317 316 319 321 318 314 314 319 319 318 320 318 311 306 301 299 299 298 297 297 296 297 296 296 296 295 295 294
318 317 317 317 318 320 320 320 320 320 320 321 324 325 324 325 325 325 324 322 322 321 320 323 323 319 320 321 321 321 320 320 317 315 318 319 318 318 320 323 318 313 316 319 323 323 322 326 321 314 315 313 309 313 316 315 317 317 318 319 315 313 318 321 320 320 318 320 320 318 318 318 318 313 304 300 301 300 298 297 297 297 297 296 295 295 295 294
316 315 315 316 317 318 319 320 319 318 321 322 324 325 323 324 322 321 324 321 321 323 324 326 324 321 322 322 323 322 320 321 318 317 321 320 319 319 318 319 317 314 314 314 318 321 319 323 322 314 316 316 310 314 318 313 311 316 318 315 313 318 321 318 319 322 322 321 323 322 317 315 318 317 312 309 305 300 299 299 298 297 297 296 296 295 295 294
314 314 316 315 316 317 318 318 317 318 321 323 325 325 324 324 323 322 323 322 323 326 327 326 323 323 324 323 325 323 319 321 320 319 321 320 320 319 316 318 317 315 316 314 316 321 318 320 323 315 313 316 314 316 322 317 312 312 313 311 313 318 320 319 318 319 321 321 323 324 320 318 319 317 321 318 306 299 300 299 298 298 296 296 296 295 294 294
312 316 317 313 314 318 317 316 317 319 322 323 324 323 321 321 322 323 322 322 323 324 325 328 325 325 325 322 324 325 322 322 320 320 322 320 320 319 317 318 317 316 315 312 314 319 317 317 323 317 312 315 317 318 320 320 315 314 315 315 315 315 316 318 316 317 321 322 324 324 320 321 320 313 315 315 304 299 300 299 298 298 297 297 296 295 294 293
311 317 317 311 313 316 315 316 319 320 323 324 324 322 321 320 320 322 322 321 322 320 322 328 326 325 326 324 324 325 323 324 322 321 323 320 321 321 316 316 318 315 314 313 315 318 317 318 323 320 316 319 322 316 314 316 318 318 319 318 318 317 317 318 317 316 317 318 323 322 318 320 317 307 306 308 303 299 299 299 298 298 298 297 296 295 294 293
311 317 315 310 312 314 315 319 321 320 323 324 323 322 321 320 321 322 320 320 322 321 320 324 325 325 326 325 324 324 323 325 323 322 323 322 323 322 315 313 316 315 315 318 317 316 316 320 322 321 319 320 317 311 308 311 314 315 316 318 319 320 320 320 319 319 317 315 316 317 318 318 311 303 304 305 302 300 299 299 299 299 298 297 297 296 295 294
312 314 311 310 312 313 316 321 321 320 322 320 320 321 320 319 320 320 320 319 320 321 320 321 321 322 323 322 322 321 321 323 322 322 322 321 321 319 314 314 315 316 319 320 317 316 317 319 320 321 321 317 314 313 310 309 312 314 314 315 318 319 319 317 316 319 320 318 317 317 319 316 308 304 304 302 300 300 299 299 300 299 299 298 298 297 295 293
311 311 310 310 311 312 317 322 321 320 320 318 319 319 318 319 319 319 319 319 319 320 321 321 319 320 321 320 320 319 319 320 321 319 319 320 318 313 310 312 314 316 319 319 318 319 319 319 320 321 322 319 316 317 315 313 315 317 316 315 315 316 317 315 313 315 317 318 318 317 317 316 310 304 303 302 301 300 299 299 299 300 300 299 297 296 295 294
310 310 310 310 310 311 314 317 318 319 319 318 318 318 317 318 318 317 318 319 319 320 320 320 320 320 319 317 317 317 317 318 320 318 316 318 317 311 308 309 311 315 317 316 316 316 317 318 319 319 321 320 319 319 318 317 316 315 314 314 313 314 315 315 315 316 316 317 317 316 315 316 312 306 304 304 303 302 301 300 299 301 302 300 298 297 296 295
310 310 310 310 310 311 312 312 314 317 318 318 318 317 317 317 316 316 317 318 319 318 318 319 318 318 318 317 317 318 316 316 317 317 316 318 318 312 308 308 309 312 313 311 311 314 316 317 316 317 319 317 318 318 315 315 317 316 315 314 313 312 313 314 315 315 315 315 315 314 314 315 314 310 307 306 305 304 303 301 299 301 302 302 300 298 296 294
309 309 309 310 310 311 311 312 313 315 316 317 317 316 316 316 315 315 316 318 318 317 317 317 316 317 318 317 318 319 317 316 316 316 316 318 317 311 307 307 308 310 311 310 309 313 316 315 314 316 316 314 314 315 311 312 316 317 315 314 312 310 311 312 313 313 314 314 313 313 312 312 313 311 310 309 307 305 304 302 301 301 301 301 299 296 295 294
307 308 308 309 310 311 311 312 313 313 314 315 316 316 317 316 316 316 316 315 315 316 317 317 316 317 318 318 318 319 317 316 316 315 315 316 315 311 308 307 307 308 310 308 309 313 316 316 313 313 314 312 311 312 310 310 312 312 312 312 310 309 309 310 310 310 311 311 311 311 310 310 310 309 310 310 307 305 305 304 302 301 301 300 298 297 296 295
304 306 305 305 308 310 310 311 312 312 313 314 315 315 316 316 315 316 315 315 315 315 317 317 317 316 316 316 317 318 317 317 316 316 315 314 313 313 312 311 308 306 308 309 309 311 314 315 313 310 312 312 308 307 308 308 309 310 310 310 309 307 306 306 307 307 307 308 308 308 307 307 306 306 308 310 308 305 305 303 302 301 300 299 299 299 298 295
303 304 304 304 305 305 308 311 311 312 312 313 314 314 313 314 314 314 314 315 316 315 315 316 316 316 316 316 317 317 316 316 316 315 314 313 312 312 313 315 311 306 307 309 309 308 311 313 310 308 312 310 305 303 305 305 306 307 307 307 306 305 305 305 305 304 304 305 305 305 305 305 303 303 305 306 306 305 304 303 301 299 299 300 299 299 297 294
298 298 300 303 306 305 307 309 311 312 312 312 313 313 312 313 312 312 313 313 314 315 315 316 316 315 314 313 315 316 315 315 317 316 314 314 314 311 312 314 311 308 309 308 308 309 310 309 307 308 313 310 302 300 302 301 302 303 303 302 301 302 304 303 303 304 304 304 303 303 303 303 301 302 302 302 304 304 303 303 300 299 299 299 300 299 296 293
296 295 296 300 305 306 306 308 310 311 311 311 311 312 312 312 311 312 312 311 311 311 311 314 315 314 313 313 313 313 312 311 310 309 308 310 311 310 309 309 308 309 309 307 307 308 307 308 308 308 311 307 300 299 301 302 304 304 303 302 300 301 301 300 301 302 302 302 302 302 302 301 300 301 301 301 302 301 300 300 300 300 298 297 297 297 294 292
Wind_Speed
4 3 3 2 3 3 3 3 3 3 3 4 3 3 4 3 4 4 4 5 5 6 6 7 8 8 9 9 11 12 14 15 16 12 7 4 4 7 4 1 1 2 3 5 7 6 3 2 1 2 2 2 4 2 3 3 2 4 4 3 0 3 3 5 6 5 3 4 6 4 3 1 5 5 4 3 2 4 5 5 5 4 6 8 10 11 10 8
4 3 3 3 4 4 3 3 3 3 3 4 4 3 4 4 4 4 4 5 5 6 6 6 7 7 8 9 10 12 15 16 15 10 5 1 6 8 5 2 0 2 4 5 7 6 4 2 1 4 5 2 3 3 2 2 3 4 3 2 2 6 5 5 7 5 3 3 6 5 2 3 5 3 2 4 7 7 8 9 3 4 8 10 13 11 8 6
4 3 3 3 4 4 4 3 3 3 3 3 3 4 4 4 4 4 4 5 5 5 6 6 6 7 7 8 10 12 15 13 8 3 1 5 9 8 6 4 1 3 4 4 6 5 4 4 4 4 4 2 1 3 3 1 1 2 4 1 5 6 4 5 6 6 6 4 4 6 2 2 5 3 1 3 7 8 8 9 4 6 8 8 10 7 6 4
5 4 4 4 5 5 4 3 3 3 3 3 3 3 4 4 4 4 5 5 5 5 6 6 6 7 7 8 8 11 12 8 2 3 4 7 9 7 5 4 3 5 5 3 5 4 2 4 5 4 4 2 4 3 1 2 0 2 4 4 6 4 2 6 7 7 7 4 3 4 3 5 5 2 2 1 5 8 9 8 6 8 10 7 8 9 7 5
6 5 5 5 6 5 4 3 3 3 3 3 3 4 4 5 4 4 5 5 6 5 6 7 7 7 7 7 7 8 8 5 1 4 5 6 7 5 4 4 5 6 7 4 4 4 2 4 5 5 4 1 3 3 2 3 2 2 3 5 5 4 3 7 5 5 4 3 3 4 5 5 3 1 3 2 4 7 8 8 7 6 7 7 6 9 7 4
7 7 6 6 6 5 4 4 4 3 3 3 4 4 4 5 5 6 6 6 6 6 7 8 8 8 7 6 5 4 3 1 3 3 6 7 5 3 3 4 4 7 9 5 3 4 3 4 5 3 2 1 1 2 4 3 2 2 3 3 4 4 4 6 3 3 1 1 4 4 4 2 4 6 4 6 9 10 10 11 5 3 4 5 4 6 7 6
7 7 7 7 6 5 5 5 4 4 4 4 4 4 5 6 6 7 7 7 7 7 8 8 9 8 7 5 3 2 3 4 7 5 7 7 5 4 3 4 4 7 10 7 3 4 4 4 2 4 4 2 2 3 4 2 2 2 3 4 4 4 5 6 4 6 3 3 7 2 3 4 4 6 4 6 12 12 11 8 7 6 6 7 8 8 8 9
6 7 7 7 7 6 6 5 5 4 4 4 4 5 5 6 7 8 8 9 8 7 8 7 8 7 5 2 1 3 2 6 7 6 8 7 7 7 5 5 5 7 10 9 5 5 4 5 4 4 3 1 4 3 1 1 2 3 5 4 2 3 6 7 6 8 7 6 6 1 5 9 8 4 3 10 15 11 5 7 7 6 9 11 11 10 9 9
7 7 7 7 8 7 6 5 4 4 4 4 4 5 6 6 7 9 9 9 8 7 7 6 6 5 3 2 4 2 4 5 4 5 6 6 8 8 7 5 6 8 9 7 5 6 5 4 4 4 4 3 4 3 1 1 2 4 5 3 4 5 6 7 7 8 6 5 3 2 9 9 5 1 3 13 13 6 7 8 7 8 10 10 9 9 8 9
9 7 7 8 8 8 6 5 4 3 4 4 4 5 6 7 7 8 8 8 7 7 6 5 6 4 4 3 6 0 5 2 2 3 4 5 7 8 7 5 6 8 7 5 5 7 5 5 4 4 4 3 4 2 2 3 3 4 4 4 5 7 7 4 7 8 4 4 5 5 10 8 3 1 4 9 3 6 9 9 8 10 10 8 8 7 9 11
10 8 8 8 9 8 6 6 5 4 4 4 4 5 6 7 7 8 8 7 7 6 6 5 5 5 5 5 5 4 5 2 3 3 3 5 7 7 6 4 5 7 7 4 6 7 4 5 6 5 2 2 3 1 1 4 2 2 1 5 6 7 8 5 7 8 3 3 4 7 6 5 3 0 7 7 5 9 9 9 9 10 8 7 7 7 9 11
13 11 9 9 10 9 8 7 6 5 5 4 4 5 6 7 7 8 7 7 6 6 5 4 5 7 5 2 4 8 6 3 3 2 3 5 6 6 5 4 5 6 7 5 5 6 4 5 7 4 2 3 2 0 2 3 2 1 2 4 8 7 7 8 5 3 0 1 4 6 3 6 1 6 10 5 7 8 10 9 8 8 6 6 6 7 7 10
14 12 10 10 10 9 8 7 5 5 4 4 5 5 6 7 8 7 7 6 6 5 5 4 5 8 5 1 6 11 11 7 5 4 5 6 6 5 4 4 5 5 6 5 4 5 5 6 7 4 2 5 1 1 2 2 1 1 2 1 5 7 7 8 0 3 2 1 4 3 3 7 6 11 8 5 6 7 10 7 6 6 5 5 6 6 7 10
14 12 11 10 9 9 8 7 5 5 4 4 5 5 6 7 7 6 6 5 5 4 4 2 6 8 4 3 5 6 9 9 7 7 7 6 5 3 4 4 4 4 4 5 6 5 4 5 6 3 1 3 1 1 3 6 3 2 2 1 3 2 5 8 1 1 4 1 2 3 2 6 8 12 6 5 5 8 8 4 5 5 5 5 5 6 6 8
14 13 12 11 10 9 9 7 6 5 4 5 5 5 6 6 6 5 4 4 3 1 1 3 7 6 1 5 5 4 6 7 8 10 8 7 6 4 5 6 5 5 5 6 6 5 4 4 4 3 1 1 4 3 2 4 3 2 1 3 3 2 5 10 4 4 2 2 2 4 2 6 8 12 5 5 7 8 7 4 6 5 6 6 5 6 5 6
13 12 13 12 10 10 9 8 6 5 5 5 5 5 5 5 4 3 2 1 3 4 4 4 7 5 0 3 2 2 5 6 7 9 8 8 7 4 6 7 6 6 6 5 5 4 3 4 2 1 1 1 4 4 3 4 4 3 1 4 3 3 3 7 5 1 3 1 3 2 3 5 6 10 6 7 9 7 7 4 6 5 6 6 5 6 5 6
14 13 12 11 11 11 10 8 6 5 5 5 5 4 5 4 2 0 2 5 6 5 4 4 6 3 2 2 1 2 4 5 6 8 9 8 7 6 7 6 4 6 6 4 3 2 3 4 1 1 2 2 3 5 3 3 5 3 0 3 4 4 3 3 4 3 3 4 1 1 2 6 8 10 7 10 10 6 7 5 6 5 5 5 5 6 6 7
18 14 12 12 12 11 10 8 6 4 4 5 4 4 3 1 2 2 4 6 5 5 3 2 4 1 3 2 2 2 2 5 6 8 9 8 7 7 6 5 5 6 5 3 2 2 2 3 2 1 3 2 2 5 3 5 5 4 3 3 3 3 4 5 5 4 4 4 2 2 3 8 11 10 6 9 8 7 8 6 6 6 6 5 6 6 6 7
19 16 14 13 13 12 10 8 5 4 4 4 4 2 1 2 2 3 4 4 3 2 1 3 4 2 3 3 2 2 4 6 7 7 9 8 9 7 6 6 6 6 4 1 1 1 1 3 3 1 1 3 5 7 9 10 8 7 5 4 4 4 5 6 6 5 2 4 5 5 6 8 9 9 5 8 7 8 7 6 6 5 6 5 6 6 6 7
20 17 15 14 14 12 9 7 4 3 5 4 1 2 2 2 2 1 2 3 5 5 2 5 6 2 2 2 1 4 4 5 4 5 8 9 10 8 5 4 5 4 3 3 2 0 3 3 2 5 7 8 10 12 11 6 4 4 2 3 5 5 6 5 5 5 0 1 6 4 4 7 8 6 6 6 5 8 6 6 6 5 5 5 6 6 7 7
21 18 16 15 15 12 9 6 4 4 5 4 2 2 3 3 2 2 2 3 9 10 6 6 6 5 4 1 4 7 4 1 0 3 8 9 10 7 1 2 4 1 1 3 2 2 3 4 8 11 10 9 8 9 7 3 2 2 2 3 4 5 6 7 5 5 1 2 5 3 3 9 6 4 6 5 6 7 5 5 6 5 6 5 6 6 6 5
21 19 17 17 16 12 9 6 5 5 5 3 3 2 2 2 2 1 1 2 8 8 8 7 4 7 7 4 5 5 2 1 2 2 8 8 5 5 1 4 5 3 1 2 3 1 1 5 12 11 5 2 1 3 4 4 3 2 2 2 4 4 4 7 5 4 2 2 4 3 3 9 4 4 5 6 6 5 4 6 5 5 6 6 6 6 6 6
21 19 18 19 16 11 7 6 5 5 5 4 3 3 2 1 2 2 3 0 6 3 5 6 4 6 6 5 6 7 3 5 4 4 9 9 3 4 4 4 5 3 2 4 5 4 3 7 11 6 4 3 3 3 7 3 2 3 3 2 4 4 1 4 4 4 2 1 3 2 4 7 2 3 5 6 5 5 6 7 7 6 6 6 5 5 6 6
21 19 20 20 16 9 6 6 5 6 7 6 4 4 3 3 4 3 2 0 4 4 4 6 5 5 5 4 6 9 5 4 3 4 11 12 4 3 4 5 5 3 4 7 8 6 7 7 3 3 5 6 5 3 6 4 2 3 5 5 5 5 5 6 4 4 3 2 2 2 4 5 2 1 2 4 4 5 5 6 7 6 6 6 6 6 6 6
21 21 21 20 15 8 5 5 6 7 7 6 5 6 5 3 4 4 2 1 3 5 4 3 3 3 5 3 6 8 3 2 3 3 9 11 7 4 2 2 4 5 6 6 6 6 9 6 3 4 3 4 5 4 5 7 3 4 5 10 11 8 7 6 3 4 4 3 3 4 3 4 4 2 3 3 3 4 4 5 6 6 6 6 6 6 5 6
23 22 22 21 14 9 5 3 5 8 6 5 6 6 7 6 5 5 4 3 4 4 1 2 2 4 5 3 4 5 2 2 2 2 6 7 5 4 2 1 1 4 5 5 3 3 5 3 4 5 4 5 4 5 5 7 5 2 4 8 10 7 6 5 3 2 0 3 2 3 0 5 5 3 5 5 4 4 3 5 5 4 5 5 5 4 4 5
24 23 24 21 16 12 7 3 8 10 4 5 8 9 8 7 6 4 2 3 4 3 3 1 0 4 5 2 2 5 2 3 1 3 3 3 1 3 2 3 1 2 3 4 1 3 3 1 2 5 5 5 5 4 6 7 6 3 4 4 6 6 6 6 5 3 2 3 3 2 1 3 4 4 4 7 7 3 2 3 4 3 4 4 4 4 4 4
25 24 24 22 20 17 10 4 9 9 3 5 11 10 8 8 6 3 3 1 4 1 3 1 1 3 2 1 3 5 2 1 3 1 2 3 0 2 1 5 5 4 2 5 3 4 1 1 3 6 4 4 5 3 6 9 4 5 3 6 6 6 5 5 5 2 1 2 4 4 0 2 5 4 0 5 4 2 3 3 2 2 3 3 3 3 4 4
26 25 23 22 20 19 14 6 7 7 4 9 12 10 9 9 6 4 3 3 2 2 1 1 2 1 1 2 3 3 1 2 2 2 2 3 1 3 2 5 6 4 0 4 5 4 1 2 5 7 5 5 3 1 5 8 4 4 5 6 5 5 5 4 4 3 2 1 5 6 3 2 5 4 0 2 2 4 5 4 3 3 2 1 1 2 3 4
26 26 23 20 19 19 16 12 11 8 8 12 12 11 11 7 3 3 3 5 1 1 0 1 2 1 4 5 0 1 2 1 1 1 2 1 2 5 2 3 5 4 1 3 2 3 2 2 2 4 3 5 4 3 1 3 3 4 6 6 6 5 5 4 2 3 2 3 6 7 7 5 4 5 2 3 2 3 5 5 4 3 2 2 1 0 2 3
26 27 25 23 22 22 15 11 17 14 10 13 13 11 9 3 2 4 7 3 2 1 2 1 1 2 6 6 3 1 3 1 1 2 2 1 2 4 2 2 4 3 3 4 3 4 5 3 2 2 2 4 6 5 3 3 3 5 4 4 3 4 4 4 4 3 0 5 5 4 4 5 4 5 3 2 3 1 4 6 8 7 5 4 3 1 1 3
27 27 27 26 26 25 17 11 19 20 13 15 14 7 4 1 3 5 4 0 1 2 3 3 1 3 5 4 3 4 4 1 1 3 4 2 2 3 2 4 4 2 2 3 3 4 3 4 3 3 1 4 6 4 3 5 5 5 4 5 3 3 3 3 3 0 3 6 3 2 1 3 6 4 1 3 4 4 5 5 10 10 8 6 4 3 1 2
28 27 27 28 28 27 22 14 15 19 19 17 11 3 3 3 6 6 4 2 2 2 3 3 1 3 6 4 2 4 3 2 3 3 2 3 3 4 3 3 6 4 1 3 2 1 3 5 1 0 3 2 7 5 2 1 1 4 5 4 3 1 1 2 3 2 4 4 2 2 1 2 5 2 1 3 4 5 5 3 9 9 8 7 5 4 2 2
31 30 30 31 30 29 27 20 14 19 24 18 8 4 5 6 4 7 8 5 1 1 2 3 4 4 5 3 3 4 3 2 4 4 2 3 2 3 4 4 5 3 3 3 2 3 2 4 2 5 2 3 7 6 5 5 3 3 4 5 4 4 3 4 3 3 4 3 2 2 1 2 3 1 2 3 3 3 3 5 8 7 6 5 4 4 3 2
33 35 34 30 30 31 30 27 21 21 23 14 5 5 9 8 2 5 7 5 2 2 3 3 5 4 2 2 3 3 3 2 3 5 3 3 3 4 4 5 6 4 3 4 2 2 3 5 6 3 1 4 6 3 4 6 3 2 3 5 2 4 4 2 3 4 2 2 3 2 2 3 4 1 2 1 3 4 5 5 7 6 5 5 4 4 4 3
31 31 29 25 28 32 33 32 28 27 21 9 5 8 8 5 4 4 4 4 4 5 5 3 3 4 3 2 2 3 1 1 4 4 2 2 3 4 4 4 7 8 5 5 3 2 2 4 5 2 1 3 4 3 3 3 3 2 2 3 4 3 6 2 2 1 3 2 4 1 2 4 1 1 3 3 4 4 4 4 5 5 5 5 5 5 5 4
24 19 17 18 26 32 34 34 33 30 18 6 8 10 3 2 4 4 3 3 4 5 7 3 2 4 4 2 3 4 2 1 3 3 2 2 3 5 5 4 5 10 9 4 3 3 3 4 5 1 2 2 1 3 3 2 3 5 2 5 3 3 4 3 1 3 3 3 4 0 3 4 1 2 3 3 2 2 2 4 5 5 5 6 6 6 5 5
19 12 8 14 24 27 30 34 32 24 9 4 11 10 3 3 4 2 3 3 4 4 5 4 3 3 4 4 3 3 4 3 3 3 3 2 3 4 5 3 3 7 8 4 2 2 3 2 6 1 3 1 3 3 3 4 1 5 4 3 3 2 1 2 2 2 2 3 4 3 3 3 4 4 2 4 7 7 6 6 7 8 8 7 7 6 6 5
13 6 3 11 20 21 26 31 26 13 4 6 11 8 3 3 3 2 3 4 4 4 4 4 3 2 2 4 3 2 4 4 4 4 3 3 3 2 4 2 2 2 3 4 4 2 3 2 4 2 0 1 3 2 3 2 1 3 2 1 2 2 3 2 2 2 2 3 3 5 4 3 5 5 6 9 10 11 10 9 9 10 9 8 7 7 7 6
7 2 2 9 17 19 24 24 14 6 5 6 7 5 2 2 3 2 1 2 3 2 3 4 3 3 2 3 2 2 3 3 5 4 3 3 3 2 0 1 2 1 1 3 4 1 2 2 3 2 2 0 1 2 6 6 4 3 2 2 1 1 1 1 1 3 3 3 3 3 5 5 4 3 5 7 8 13 14 12 11 10 9 10 9 8 7 6
2 1 2 6 15 19 20 14 5 4 3 2 3 3 2 2 3 2 1 2 3 1 2 4 4 4 4 3 2 3 3 3 4 3 3 3 2 1 0 2 2 2 2 2 3 2 2 2 3 2 1 3 4 4 4 6 4 5 5 5 4 3 2 1 4 2 2 2 4 3 5 7 4 1 2 4 6 11 12 11 11 10 11 11 8 7 7 7
2 2 2 4 14 18 14 5 2 3 2 3 3 3 2 3 4 4 1 2 2 2 3 3 3 3 4 3 2 3 4 3 4 3 3 3 3 2 1 2 3 3 3 3 3 2 2 3 2 3 3 4 5 2 2 3 2 4 2 2 3 3 4 4 6 3 2 1 2 2 4 5 2 1 2 3 5 7 8 8 9 9 10 9 7 6 7 7
2 1 2 4 11 11 7 4 3 4 2 2 2 2 2 2 3 4 4 2 2 3 2 1 3 4 4 3 3 4 4 2 3 4 2 2 2 2 1 1 2 3 2 1 2 1 1 2 1 2 2 2 4 4 2 1 3 2 1 1 4 3 3 4 5 3 2 2 2 1 5 4 1 2 2 2 4 6 7 8 9 9 8 7 7 8 8 8
2 1 2 4 7 5 3 4 4 5 3 2 3 2 1 1 2 4 5 5 3 4 4 3 3 3 3 3 4 4 5 3 3 4 3 2 3 1 2 2 1 2 2 1 1 1 0 1 2 1 2 2 3 3 2 2 0 2 2 1 2 3 4 2 1 2 1 4 6 4 6 5 1 2 2 2 4 5 6 7 7 8 7 7 8 7 7 7
1 1 2 4 6 4 2 2 1 3 4 2 2 3 1 0 1 2 4 4 3 3 4 3 3 4 4 3 3 2 4 4 3 3 3 2 2 0 3 2 2 3 3 1 2 2 2 2 3 3 5 6 4 3 2 2 1 1 2 3 3 5 6 3 1 2 3 4 5 5 6 4 3 1 1 1 3 4 6 6 6 6 6 7 7 6 6 6
1 0 1 1 3 3 1 1 2 1 3 4 3 3 4 4 2 1 2 3 2 2 2 1 2 3 2 4 4 3 6 5 3 3 3 3 3 2 0 1 1 3 2 3 3 3 2 2 4 7 9 7 5 4 3 3 3 3 3 5 5 5 6 5 3 4 4 1 3 6 3 1 4 2 3 4 3 6 7 7 7 7 6 6 6 5 5 5
1 1 2 2 1 2 3 2 1 1 1 3 3 2 5 8 4 1 3 4 3 4 2 0 2 3 3 5 5 4 6 5 4 3 3 3 2 3 2 1 1 1 1 3 3 3 3 3 5 7 7 4 4 3 2 2 3 5 5 5 5 4 6 7 5 5 4 3 7 8 4 3 8 6 6 7 6 6 7 6 8 9 8 6 4 4 5 6
1 1 2 1 0 3 5 4 5 3 2 3 2 1 4 8 8 5 4 1 1 4 4 1 4 9 8 8 6 4 4 4 5 4 3 2 2 1 1 2 2 1 2 2 0 3 4 4 3 4 3 2 3 1 2 2 1 3 4 5 6 5 6 7 6 7 6 5 9 7 4 6 10 6 6 8 8 7 7 7 8 8 7 4 4 5 7 8
1 0 1 1 1 2 4 4 6 7 7 5 2 3 5 8 8 5 3 2 0 4 6 6 7 10 10 9 7 6 6 6 5 5 4 4 4 3 2 2 2 1 3 2 0 1 3 2 1 2 2 1 1 2 2 2 1 2 6 9 7 5 6 7 7 8 7 7 9 7 6 10 11 6 7 7 7 6 6 6 6 7 6 4 6 8 9 9
2 1 1 1 1 1 1 2 6 7 8 6 6 7 6 6 8 6 2 4 5 4 5 10 11 8 9 9 9 10 10 9 8 7 7 6 4 4 4 4 3 2 1 2 1 1 1 1 2 2 1 2 2 2 3 2 2 4 9 11 4 1 5 8 7 4 3 6 10 8 8 12 10 5 5 5 4 5 6 8 8 7 6 6 7 9 9 9
3 1 2 2 2 2 1 1 4 5 6 7 8 7 5 7 10 7 3 3 6 5 6 12 13 6 5 9 12 14 12 9 10 9 9 9 7 4 4 4 6 6 3 2 1 1 1 1 2 3 1 3 2 3 3 2 1 5 13 11 5 4 8 7 4 5 7 9 9 6 6 10 7 2 3 3 4 6 9 10 8 6 6 8 9 9 9 9
3 2 2 2 2 3 3 3 4 5 5 7 9 8 8 8 7 7 5 1 1 2 4 9 10 6 4 9 12 12 7 5 5 4 5 5 4 4 3 3 4 5 6 5 2 1 3 3 2 2 3 2 2 2 3 4 2 8 11 8 9 10 10 5 3 8 10 7 5 6 8 9 4 3 3 6 6 7 8 8 7 7 6 7 8 9 9 9
Wind_Direction
290 278 269 276 280 278 267 263 267 274 279 285 293 296 301 308 308 313 313 317 323 324 326 325 327 330 332 333 331 333 333 330 326 315 300 289 210 181 180 223 319 227 174 162 166 159 127 99 121 63 62 50 12 338 350 1 54 52 75 98 249 199 201 189 187 197 183 270 273 322 17 189 286 303 316 321 315 304 314 297 262 282 282 258 268 287 305 305
281 265 266 272 271 274 269 257 253 264 272 280 290 289 293 298 299 305 306 311 316 316 319 317 322 324 329 334 333 337 335 330 326 316 309 265 171 172 174 156 244 197 168 169 181 168 129 152 166 66 48 42 351 350 6 351 63 80 111 117 233 204 210 197 186 202 203 256 272 300 304 221 246 266 343 302 287 325 323 295 274 283 290 288 285 289 301 287
278 262 268 268 262 261 259 258 246 252 267 272 281 283 284 290 293 298 296 300 304 305 308 309 315 319 329 331 336 341 335 333 328 312 46 126 148 156 151 138 154 178 178 182 195 184 135 162 151 90 46 49 337 5 38 5 60 140 123 136 243 213 233 235 200 212 226 237 277 292 297 241 246 239 328 281 291 312 293 279 290 294 294 295 292 308 320 281
280 262 265 265 255 246 244 260 249 243 257 258 264 271 275 282 292 299 292 292 298 302 302 304 308 312 321 324 335 338 339 348 312 196 139 137 147 150 143 143 162 182 194 185 185 185 131 131 117 79 62 49 330 6 60 282 307 162 139 186 228 188 235 250 216 222 230 203 213 272 331 311 275 203 199 284 317 304 279 258 228 258 290 307 308 321 320 274
275 265 264 264 260 249 240 253 257 249 256 261 266 271 276 283 291 297 295 294 298 301 301 302 299 302 309 315 326 333 356 18 276 195 171 165 156 153 144 154 172 190 194 179 171 164 134 110 86 56 66 58 336 24 267 260 119 156 215 208 202 151 232 265 231 217 211 182 232 298 317 302 304 275 212 221 269 270 271 266 229 237 298 320 315 314 316 294
275 271 268 265 261 254 249 253 256 255 258 267 273 278 285 288 291 292 292 293 294 295 293 292 292 293 297 302 312 334 45 24 257 203 197 189 175 173 156 177 184 196 196 187 170 151 119 77 69 75 75 45 169 178 253 278 93 200 276 268 228 180 229 276 273 243 197 1 283 286 295 313 349 304 249 219 240 244 256 274 301 13 347 332 334 338 351 3
276 277 277 272 260 252 256 257 253 253 257 262 271 280 284 289 292 292 290 290 291 291 288 287 288 288 290 288 291 19 88 243 259 227 213 201 210 227 201 206 198 204 202 197 178 146 117 90 111 146 100 39 189 209 248 314 35 183 263 297 262 203 220 258 279 284 289 270 262 268 325 302 275 285 300 261 252 252 265 306 8 44 33 26 35 28 27 31
273 278 279 278 269 258 254 258 259 258 262 266 279 286 286 291 292 291 291 291 295 294 288 285 283 286 287 242 187 12 342 250 258 239 226 225 234 230 215 216 209 211 202 205 201 161 138 135 172 158 111 224 184 181 213 14 20 186 228 271 273 232 242 269 291 286 282 265 257 281 289 268 241 241 313 273 266 271 299 19 33 64 49 43 46 36 35 36
269 273 278 279 275 268 258 257 259 258 269 276 286 288 287 290 290 293 296 297 302 297 290 281 274 269 250 171 101 17 274 240 255 244 235 236 230 220 217 218 212 207 191 203 202 167 173 178 194 185 167 194 174 178 146 123 272 211 210 266 299 294 288 299 293 271 265 254 234 255 273 275 260 205 264 259 264 313 38 43 32 65 58 45 45 36 35 34
266 269 279 281 275 269 258 251 248 249 267 272 280 285 284 287 291 297 301 304 306 299 293 273 257 234 207 151 97 177 255 234 266 259 246 229 218 215 219 219 207 199 185 188 186 166 173 192 187 155 145 143 160 180 127 151 210 192 192 260 266 282 290 277 268 271 267 253 225 230 266 284 302 50 264 264 281 38 44 38 37 66 62 45 43 35 35 34
271 272 280 283 275 264 248 240 240 240 252 261 273 280 284 292 298 303 305 305 307 303 295 270 244 215 185 144 132 209 251 251 265 261 239 216 208 210 205 202 192 193 195 182 193 193 192 197 162 118 126 172 159 166 237 194 166 159 199 294 281 300 297 251 258 279 293 281 212 186 251 296 358 175 238 263 39 58 58 49 47 64 57 45 44 35 37 33
270 272 277 281 274 262 244 235 236 235 247 259 273 283 293 301 305 307 307 308 310 305 292 271 223 192 161 127 199 226 242 246 253 238 218 197 184 187 180 185 186 197 210 192 195 200 195 192 152 130 209 160 142 291 229 208 138 145 46 324 302 341 319 271 266 290 104 259 198 157 290 313 314 232 243 303 20 51 68 60 52 60 54 45 42 39 40 30
267 271 275 275 270 258 239 229 231 235 250 264 279 293 300 306 312 311 312 315 312 306 294 270 206 179 152 243 234 233 242 249 249 218 188 173 164 174 183 197 194 198 215 197 176 163 168 186 159 155 162 123 181 235 97 48 74 275 30 8 307 355 321 280 327 41 15 231 207 148 298 291 264 254 267 358 20 54 64 57 58 60 52 45 40 43 42 31
263 270 274 271 261 247 230 221 221 229 250 266 280 295 302 311 315 314 320 321 317 304 289 236 180 166 150 254 252 247 245 242 235 207 182 181 180 195 203 187 177 173 181 171 152 132 140 169 146 121 110 110 179 176 37 9 7 310 329 1 338 346 280 292 319 7 334 309 192 129 214 263 275 279 299 32 29 61 71 63 65 59 50 45 36 42 40 33
260 269 273 264 248 232 222 215 214 225 248 265 281 294 303 313 314 321 332 328 334 296 201 147 159 149 92 273 264 259 239 229 223 213 207 211 209 211 198 174 152 138 144 150 139 124 123 136 124 114 220 7 57 72 1 349 3 28 292 304 335 207 265 307 304 188 215 313 57 119 206 270 275 279 304 46 20 53 85 78 65 59 50 44 32 39 34 30
264 273 270 254 234 223 217 210 212 226 248 267 285 296 307 317 314 326 354 46 91 116 120 134 153 139 54 267 247 226 223 217 217 216 212 208 209 205 171 159 141 129 138 142 135 129 94 82 83 118 163 48 70 85 40 359 333 354 203 249 267 218 272 316 318 189 165 41 28 118 227 285 282 277 305 24 9 44 95 88 68 63 51 46 37 35 33 27
263 271 266 247 229 219 211 206 212 228 253 270 283 299 314 321 298 299 97 108 107 105 103 138 150 127 271 231 211 252 216 197 202 198 193 193 200 182 149 138 119 120 117 107 119 111 39 39 28 319 51 61 98 101 61 314 282 309 339 229 249 221 223 294 305 324 58 82 349 287 224 259 271 280 321 9 2 46 99 91 71 62 50 47 40 38 35 31
256 266 261 247 229 214 207 207 212 232 258 271 289 305 322 317 207 173 138 125 102 84 72 137 140 141 269 220 204 230 151 166 174 168 175 176 176 167 143 124 114 109 84 51 53 66 11 16 58 1 19 44 120 119 161 231 216 215 209 208 256 245 227 251 266 294 13 30 296 281 255 258 268 281 333 6 5 61 91 87 75 61 53 47 40 42 35 33
253 261 256 245 225 210 207 206 211 245 269 277 291 307 59 83 156 179 168 150 125 125 198 214 165 158 244 254 228 130 108 139 151 160 166 157 157 147 112 103 102 99 89 64 319 22 105 49 64 179 257 188 183 176 198 216 197 193 200 183 207 239 246 242 247 261 342 341 289 260 259 264 270 285 343 359 10 71 84 77 72 58 54 48 43 42 33 38
253 255 249 239 220 210 205 201 214 259 273 272 258 117 118 89 47 287 226 194 210 202 189 201 196 211 271 274 167 134 124 133 142 168 166 159 154 131 89 71 60 61 111 162 212 347 116 132 190 219 217 200 203 206 209 213 159 147 166 186 209 232 263 262 260 276 58 267 273 260 266 270 268 297 353 355 21 63 67 71 71 58 55 46 44 41 32 37
252 248 238 230 218 209 199 200 223 249 266 264 187 137 175 169 126 285 264 256 245 231 238 226 208 250 264 225 161 154 137 128 67 152 162 164 152 143 105 55 82 51 241 166 152 36 99 168 224 228 217 207 210 212 218 236 103 121 193 242 260 239 257 265 258 291 352 175 267 319 308 277 274 340 1 15 48 49 43 72 73 60 60 46 41 38 30 28
247 237 226 221 216 204 194 204 228 243 262 260 204 184 214 184 152 185 125 290 274 240 236 243 231 259 257 244 208 167 117 239 265 195 168 155 144 177 196 88 137 202 236 128 105 36 110 215 238 235 214 200 220 164 179 215 195 183 184 218 266 247 275 284 281 321 14 164 269 320 294 280 304 40 23 34 62 54 43 65 68 64 64 48 41 33 25 26
237 224 215 216 210 195 194 212 228 244 247 231 210 202 208 157 136 110 101 282 294 268 221 225 217 237 243 255 225 181 187 220 224 236 180 153 136 189 147 127 170 168 141 179 167 160 199 243 245 226 148 174 241 139 128 137 171 180 166 166 250 250 264 281 292 330 2 149 269 265 262 277 311 70 50 44 67 72 59 64 64 62 65 57 50 40 30 29
225 214 211 210 201 187 201 225 235 246 235 218 221 217 190 147 139 123 88 44 291 282 239 215 201 207 219 239 200 180 206 213 194 225 179 158 141 155 160 165 164 161 200 202 185 193 229 244 232 108 125 172 218 183 134 141 230 237 201 194 234 240 213 229 281 329 342 360 9 13 309 291 276 181 89 63 66 65 49 55 56 45 49 53 50 44 33 31
218 211 208 204 192 178 194 236 240 221 205 200 218 215 183 164 154 131 88 25 290 291 282 222 195 204 196 155 164 171 181 213 211 214 177 166 152 139 192 168 151 205 209 183 186 233 252 235 124 94 109 154 194 215 175 167 207 287 230 208 220 225 216 227 300 2 3 334 348 32 343 294 310 284 183 139 66 56 32 41 52 37 34 40 41 36 24 29
215 210 206 199 182 165 178 235 221 187 178 200 208 192 174 170 164 144 93 35 279 269 260 195 174 181 175 129 154 146 104 260 253 117 156 170 157 123 159 167 103 217 182 150 176 234 259 243 160 164 144 143 187 242 223 170 143 294 246 205 209 209 196 194 165 99 247 259 287 47 233 266 313 298 202 162 101 75 50 42 46 37 36 37 36 31 20 24
214 208 203 193 173 169 183 194 179 166 167 219 191 172 172 172 170 166 85 12 281 215 142 211 145 146 169 175 161 139 163 255 60 70 118 142 159 78 127 196 164 205 167 122 167 234 225 236 147 162 129 144 193 243 223 159 126 251 251 148 159 171 177 175 151 156 223 261 314 3 174 256 290 280 211 143 117 88 77 64 51 43 41 39 31 27 24 19
212 207 201 189 177 182 186 161 169 174 185 182 170 167 167 169 171 131 84 293 278 125 112 242 118 101 142 89 80 119 191 261 102 272 358 76 63 57 115 214 176 184 172 132 207 259 182 151 196 168 139 181 207 226 187 155 148 244 208 112 125 142 150 139 119 138 311 5 309 298 262 259 265 273 51 123 141 181 183 179 133 88 59 52 45 28 21 15
208 204 201 190 182 187 196 200 190 191 187 158 157 168 165 167 166 81 76 227 258 80 79 114 131 46 49 100 59 73 78 31 117 252 354 72 60 65 157 207 153 154 111 126 209 265 55 227 208 157 157 205 206 359 172 164 189 214 132 95 71 74 81 77 99 111 37 29 250 243 189 205 269 277 87 131 218 216 190 188 169 137 106 76 60 38 27 19
206 200 198 192 188 193 202 221 216 186 163 159 152 156 158 156 127 102 218 229 123 104 135 113 163 138 101 121 50 5 97 38 33 22 22 60 17 35 132 166 100 118 10 17 258 261 319 290 197 148 178 192 135 65 105 147 147 132 99 64 36 31 45 43 64 91 48 270 246 231 198 184 268 284 211 180 239 203 170 166 171 156 137 164 201 86 40 25
208 200 196 194 197 195 189 213 212 185 160 163 153 145 150 122 74 178 218 222 73 119 135 113 204 131 129 139 166 176 118 67 1 107 107 69 34 40 79 120 79 76 1 338 300 305 332 330 271 235 187 130 97 67 34 27 68 98 81 65 41 343 15 23 356 44 158 252 266 265 210 173 227 266 235 239 299 261 187 179 173 166 165 181 192 172 51 27
208 202 199 199 202 199 192 207 204 188 173 163 152 139 133 143 216 207 220 96 146 207 160 165 218 156 155 136 145 167 140 144 186 135 141 130 147 175 168 167 153 85 342 256 265 336 315 250 269 302 232 138 106 71 22 6 33 80 91 86 75 323 352 355 312 336 229 250 273 285 165 180 236 242 223 283 311 306 271 209 167 161 168 176 180 171 92 38
208 204 204 205 207 206 205 210 203 193 185 166 152 132 113 196 220 189 179 207 197 188 129 128 110 139 148 133 178 178 133 169 188 152 140 118 151 223 246 197 163 136 151 200 192 352 299 294 317 117 277 182 144 146 177 244 128 138 142 126 124 138 29 293 276 277 268 269 290 275 200 250 268 265 213 283 307 306 293 186 151 153 160 164 166 163 125 63
209 206 207 209 211 213 211 209 207 195 184 169 152 148 172 216 220 156 177 212 184 104 86 108 101 104 141 167 220 184 142 201 174 136 115 109 136 225 243 227 184 140 113 142 174 173 200 297 232 177 242 193 172 180 162 143 147 172 153 130 142 154 166 230 229 217 260 285 307 289 241 202 223 256 273 276 328 346 12 99 125 134 140 142 138 142 141 120
217 214 214 212 212 217 214 211 210 195 180 167 149 180 198 213 187 151 186 191 152 119 71 91 109 114 184 259 269 208 179 210 156 126 135 157 178 199 201 208 188 155 132 157 218 169 162 257 253 233 257 162 178 196 128 113 124 205 124 109 155 181 160 203 208 176 198 297 297 245 229 219 184 144 331 11 40 36 56 93 119 127 128 132 146 162 171 170
222 218 217 214 215 218 216 214 211 196 181 160 171 203 211 203 168 176 187 152 151 146 118 98 101 130 216 271 272 240 201 137 140 139 183 193 209 209 208 221 187 173 164 159 204 171 143 267 278 328 344 162 177 190 134 135 181 160 123 170 212 169 122 115 267 38 73 271 271 206 242 288 355 54 351 37 56 54 75 114 135 146 153 160 178 188 188 189
209 209 211 210 217 219 218 216 206 194 186 167 195 208 201 171 177 177 175 136 131 132 132 158 170 166 198 210 223 215 161 133 148 155 204 220 229 201 203 254 189 182 190 176 221 204 150 263 277 143 167 247 197 143 72 27 150 127 174 210 181 111 96 99 255 343 29 248 273 214 215 265 263 254 335 31 106 148 168 173 168 177 184 187 196 198 197 196
193 191 208 216 219 219 218 213 199 187 187 187 208 217 182 183 201 160 156 134 105 106 130 180 197 174 183 192 216 185 158 180 171 163 190 214 243 187 170 221 197 194 207 171 202 243 135 242 284 172 157 286 5 93 64 347 77 129 185 190 114 140 178 104 167 249 261 248 283 296 259 245 215 209 213 206 197 187 192 196 194 198 198 199 204 204 206 198
177 170 236 216 211 213 210 202 189 180 194 196 209 221 182 194 234 191 160 124 94 106 144 194 200 140 163 174 173 163 170 181 167 173 187 178 227 207 152 195 199 222 247 165 171 233 117 181 276 316 171 309 26 92 177 250 29 94 127 104 84 166 173 146 157 169 200 232 270 298 309 279 234 205 191 204 191 175 184 194 198 203 201 203 204 199 199 192
162 165 267 192 190 197 193 185 178 183 205 198 205 206 154 195 246 246 210 118 97 111 164 190 181 159 171 162 155 170 177 180 170 185 211 177 207 256 63 79 136 105 324 173 180 199 110 175 240 303 336 128 176 207 189 185 173 141 155 181 206 177 132 220 214 130 144 185 208 265 283 270 255 199 190 207 185 176 186 188 191 200 200 206 207 196 190 186
166 215 259 175 178 183 177 173 185 199 201 212 192 169 144 172 182 201 318 74 98 95 128 152 166 171 166 157 182 180 157 175 181 184 227 207 192 241 2 68 134 142 81 120 197 224 169 169 187 200 198 191 226 244 191 185 174 157 183 200 189 169 131 212 247 186 132 171 178 206 263 269 263 194 195 214 189 187 190 182 183 195 200 206 205 189 186 189
153 216 281 173 175 177 171 174 198 161 190 232 180 140 140 162 170 179 163 69 97 100 88 116 155 168 167 164 180 170 149 169 191 185 219 220 189 184 178 110 134 140 111 137 215 232 150 127 158 198 208 215 251 284 175 195 153 127 185 196 156 153 140 186 237 224 153 223 153 146 256 268 268 282 264 233 203 192 185 176 182 198 205 206 200 191 195 197
159 248 318 186 184 186 185 202 187 161 206 216 116 68 107 145 160 169 175 183 159 128 110 149 173 187 199 174 145 162 166 163 180 183 198 240 219 210 221 149 134 123 105 158 222 219 89 98 148 263 305 318 313 333 16 70 95 112 256 151 139 165 152 184 221 176 151 229 135 134 248 252 300 324 290 225 184 173 178 183 188 197 205 205 201 201 201 196
141 72 351 239 231 239 222 214 199 189 194 127 96 68 44 85 164 167 179 194 179 144 154 175 183 198 202 157 135 169 184 176 187 195 185 191 217 201 40 355 283 154 136 209 196 166 247 113 115 284 306 330 336 342 342 324 244 181 228 202 159 142 112 104 165 126 190 207 166 193 248 247 289 342 17 70 125 164 196 199 193 197 201 205 206 205 200 192
112 76 11 289 280 288 264 248 204 187 196 186 173 174 149 344 225 187 179 177 165 155 165 175 169 167 164 132 102 148 195 204 207 198 182 200 253 41 66 351 271 185 172 190 162 150 184 179 153 192 237 244 238 222 224 239 205 183 213 208 195 166 150 151 155 173 227 208 176 217 251 270 308 16 31 14 133 175 217 213 210 218 210 210 212 204 197 188
106 72 61 334 314 306 294 345 55 139 205 216 228 205 198 217 271 311 190 189 188 166 156 81 119 127 148 147 132 166 209 217 208 173 165 197 255 291 49 308 233 170 154 130 129 124 135 184 200 213 233 239 227 227 217 152 147 188 215 205 200 182 167 161 158 194 207 181 244 243 215 276 292 251 226 254 203 199 218 205 207 226 229 228 224 207 195 191
122 188 175 152 301 264 272 287 196 188 193 194 207 208 205 213 223 227 200 208 202 177 180 31 141 171 188 161 159 195 204 206 207 184 161 178 229 288 290 250 154 152 135 133 133 116 128 213 217 213 237 235 189 203 192 129 168 191 199 208 200 168 158 169 192 206 171 153 252 247 155 177 260 241 209 225 219 217 228 211 206 220 228 227 205 179 187 198
148 174 196 165 140 211 226 226 203 205 217 201 199 191 197 201 200 200 199 196 166 187 198 227 195 201 194 165 165 197 186 186 204 188 158 167 181 202 277 232 213 223 102 127 348 108 142 228 214 172 220 205 149 131 106 110 181 191 202 225 211 186 180 187 208 215 194 209 253 254 168 204 249 242 201 213 214 210 219 216 215 227 233 214 174 180 198 202
125 347 263 340 23 210 219 198 178 201 218 207 210 231 213 205 205 202 165 119 106 214 203 218 222 210 198 177 175 198 194 185 201 198 178 181 176 162 178 227 229 190 117 132 273 116 155 214 167 142 212 178 106 0 65 108 274 265 254 250 234 211 198 199 218 222 211 233 255 259 241 242 251 229 197 214 215 208 225 233 231 240 238 204 188 202 209 204
132 206 219 60 359 278 279 174 167 201 217 204 219 230 216 213 216 212 166 166 204 216 196 218 229 209 193 191 195 215 215 196 203 204 177 176 194 188 201 207 164 116 94 140 187 258 199 179 104 103 234 289 335 31 82 127 213 245 261 257 234 164 223 224 227 209 182 238 249 253 258 262 262 221 189 224 227 214 241 245 234 228 215 200 203 213 213 207
109 59 94 126 213 194 181 188 169 193 210 205 219 219 199 213 213 203 215 209 204 201 190 211 223 210 187 202 210 222 222 200 202 200 174 181 198 190 201 200 153 147 162 168 179 219 175 172 68 82 176 264 351 60 91 75 70 262 265 254 188 181 233 231 204 191 201 225 239 246 254 260 265 162 157 232 226 214 235 241 237 228 208 203 212 214 211 207
118 39 67 123 216 192 178 187 171 191 213 209 214 213 206 214 192 172 203 260 114 193 203 206 209 196 190 213 220 227 220 173 178 181 155 165 161 127 133 140 127 149 167 163 148 109 149 153 121 123 184 234 16 68 84 52 355 270 262 232 188 210 236 239 225 226 213 195 201 220 236 250 255 127 183 237 225 218 234 237 234 233 216 208 216 214 209 206